Date&Time (GMT),Global horizontal irradiance (W/m2)
01/01/2007 00:30,0
01/01/2007 01:30,0
01/01/2007 02:30,0
01/01/2007 03:30,0
01/01/2007 04:30,0
01/01/2007 05:30,0
01/01/2007 06:30,0
01/01/2007 07:30,1.31139
01/01/2007 08:30,6.11868
01/01/2007 09:30,58.7659
01/01/2007 10:30,100.164
01/01/2007 11:30,149.527
01/01/2007 12:30,99.1706
01/01/2007 13:30,48.3059
01/01/2007 14:30,23.8823
01/01/2007 15:30,16.0823
01/01/2007 16:30,2.32084
01/01/2007 17:30,0
01/01/2007 18:30,0
01/01/2007 19:30,0
01/01/2007 20:30,0
01/01/2007 21:30,0
01/01/2007 22:30,0
01/01/2007 23:30,0
02/01/2007 00:30,0
02/01/2007 01:30,0
02/01/2007 02:30,0
02/01/2007 03:30,0
02/01/2007 04:30,0
02/01/2007 05:30,0
02/01/2007 06:30,0
02/01/2007 07:30,1.40433
02/01/2007 08:30,3.70933
02/01/2007 09:30,27.1561
02/01/2007 10:30,51.258
02/01/2007 11:30,79.3174
02/01/2007 12:30,111.816
02/01/2007 13:30,105.299
02/01/2007 14:30,77.5626
02/01/2007 15:30,30.8584
02/01/2007 16:30,2.42628
02/01/2007 17:30,0
02/01/2007 18:30,0
02/01/2007 19:30,0
02/01/2007 20:30,0
02/01/2007 21:30,0
02/01/2007 22:30,0
02/01/2007 23:30,0
03/01/2007 00:30,0
03/01/2007 01:30,0
03/01/2007 02:30,0
03/01/2007 03:30,0
03/01/2007 04:30,0
03/01/2007 05:30,0
03/01/2007 06:30,0
03/01/2007 07:30,0.695011
03/01/2007 08:30,2.21546
03/01/2007 09:30,8.10193
03/01/2007 10:30,21.2378
03/01/2007 11:30,48.5148
03/01/2007 12:30,0
03/01/2007 13:30,51.8698
03/01/2007 14:30,30.1749
03/01/2007 15:30,10.1362
03/01/2007 16:30,2.79087
03/01/2007 17:30,0
03/01/2007 18:30,0
03/01/2007 19:30,0
03/01/2007 20:30,0
03/01/2007 21:30,0
03/01/2007 22:30,0
03/01/2007 23:30,0
04/01/2007 00:30,0
04/01/2007 01:30,0
04/01/2007 02:30,0
04/01/2007 03:30,0
04/01/2007 04:30,0
04/01/2007 05:30,0
04/01/2007 06:30,0
04/01/2007 07:30,0.627174
04/01/2007 08:30,2.55764
04/01/2007 09:30,37.5247
04/01/2007 10:30,79.2216
04/01/2007 11:30,95.9861
04/01/2007 12:30,127.678
04/01/2007 13:30,104.647
04/01/2007 14:30,59.9183
04/01/2007 15:30,17.0355
04/01/2007 16:30,2.4812
04/01/2007 17:30,0
04/01/2007 18:30,0
04/01/2007 19:30,0
04/01/2007 20:30,0
04/01/2007 21:30,0
04/01/2007 22:30,0
04/01/2007 23:30,0
05/01/2007 00:30,0
05/01/2007 01:30,0
05/01/2007 02:30,0
05/01/2007 03:30,0
05/01/2007 04:30,0
05/01/2007 05:30,0
05/01/2007 06:30,0
05/01/2007 07:30,0.948213
05/01/2007 08:30,2.61082
05/01/2007 09:30,12.2266
05/01/2007 10:30,27.5454
05/01/2007 11:30,46.9499
05/01/2007 12:30,48.5299
05/01/2007 13:30,89.9067
05/01/2007 14:30,80.4499
05/01/2007 15:30,39.9464
05/01/2007 16:30,3.14612
05/01/2007 17:30,0
05/01/2007 18:30,0
05/01/2007 19:30,0
05/01/2007 20:30,0
05/01/2007 21:30,0
05/01/2007 22:30,0
05/01/2007 23:30,0
06/01/2007 00:30,0
06/01/2007 01:30,0
06/01/2007 02:30,0
06/01/2007 03:30,0
06/01/2007 04:30,0
06/01/2007 05:30,0
06/01/2007 06:30,0
06/01/2007 07:30,0.857531
06/01/2007 08:30,2.4401
06/01/2007 09:30,15.5148
06/01/2007 10:30,21.3344
06/01/2007 11:30,36.9115
06/01/2007 12:30,64.9327
06/01/2007 13:30,63.9777
06/01/2007 14:30,97.7683
06/01/2007 15:30,41.6973
06/01/2007 16:30,4.90072
06/01/2007 17:30,0
06/01/2007 18:30,0
06/01/2007 19:30,0
06/01/2007 20:30,0
06/01/2007 21:30,0
06/01/2007 22:30,0
06/01/2007 23:30,0
07/01/2007 00:30,0
07/01/2007 01:30,0
07/01/2007 02:30,0
07/01/2007 03:30,0
07/01/2007 04:30,0
07/01/2007 05:30,0
07/01/2007 06:30,0
07/01/2007 07:30,2.87272
07/01/2007 08:30,3.5802
07/01/2007 09:30,18.2828
07/01/2007 10:30,42.9009
07/01/2007 11:30,56.5011
07/01/2007 12:30,56.3562
07/01/2007 13:30,56.8339
07/01/2007 14:30,24.9305
07/01/2007 15:30,11.24
07/01/2007 16:30,1.53877
07/01/2007 17:30,0
07/01/2007 18:30,0
07/01/2007 19:30,0
07/01/2007 20:30,0
07/01/2007 21:30,0
07/01/2007 22:30,0
07/01/2007 23:30,0
08/01/2007 00:30,1.83497
08/01/2007 01:30,1.50201
08/01/2007 02:30,1.50171
08/01/2007 03:30,0
08/01/2007 04:30,0
08/01/2007 05:30,0
08/01/2007 06:30,0
08/01/2007 07:30,0.698232
08/01/2007 08:30,3.69169
08/01/2007 09:30,18.9211
08/01/2007 10:30,26.4794
08/01/2007 11:30,36.856
08/01/2007 12:30,37.2743
08/01/2007 13:30,57.9151
08/01/2007 14:30,32.9122
08/01/2007 15:30,15.3464
08/01/2007 16:30,3.25579
08/01/2007 17:30,0
08/01/2007 18:30,0
08/01/2007 19:30,0
08/01/2007 20:30,0
08/01/2007 21:30,0
08/01/2007 22:30,0
08/01/2007 23:30,0
09/01/2007 00:30,0
09/01/2007 01:30,0
09/01/2007 02:30,0
09/01/2007 03:30,0
09/01/2007 04:30,0
09/01/2007 05:30,0
09/01/2007 06:30,0
09/01/2007 07:30,0.562655
09/01/2007 08:30,3.60259
09/01/2007 09:30,24.8805
09/01/2007 10:30,42.6072
09/01/2007 11:30,68.1729
09/01/2007 12:30,81.7924
09/01/2007 13:30,66.7755
09/01/2007 14:30,43.6501
09/01/2007 15:30,14.7218
09/01/2007 16:30,1.3179
09/01/2007 17:30,0
09/01/2007 18:30,0
09/01/2007 19:30,0
09/01/2007 20:30,0
09/01/2007 21:30,0
09/01/2007 22:30,0
09/01/2007 23:30,0
10/01/2007 00:30,0
10/01/2007 01:30,0
10/01/2007 02:30,0
10/01/2007 03:30,0
10/01/2007 04:30,0
10/01/2007 05:30,0
10/01/2007 06:30,0
10/01/2007 07:30,0.786655
10/01/2007 08:30,0
10/01/2007 09:30,40.8637
10/01/2007 10:30,87.5582
10/01/2007 11:30,133.086
10/01/2007 12:30,171.293
10/01/2007 13:30,177.779
10/01/2007 14:30,128.936
10/01/2007 15:30,62.3415
10/01/2007 16:30,4.99438
10/01/2007 17:30,0
10/01/2007 18:30,0
10/01/2007 19:30,0
10/01/2007 20:30,0
10/01/2007 21:30,0
10/01/2007 22:30,0
10/01/2007 23:30,0
11/01/2007 00:30,0
11/01/2007 01:30,0
11/01/2007 02:30,0
11/01/2007 03:30,0
11/01/2007 04:30,0
11/01/2007 05:30,0
11/01/2007 06:30,0
11/01/2007 07:30,0.937938
11/01/2007 08:30,0
11/01/2007 09:30,14.6145
11/01/2007 10:30,56.6218
11/01/2007 11:30,100.777
11/01/2007 12:30,162.246
11/01/2007 13:30,114.307
11/01/2007 14:30,62.2768
11/01/2007 15:30,31.5367
11/01/2007 16:30,4.23049
11/01/2007 17:30,0
11/01/2007 18:30,0
11/01/2007 19:30,0
11/01/2007 20:30,0
11/01/2007 21:30,0
11/01/2007 22:30,0
11/01/2007 23:30,0
12/01/2007 00:30,0
12/01/2007 01:30,0
12/01/2007 02:30,0
12/01/2007 03:30,0
12/01/2007 04:30,0
12/01/2007 05:30,0
12/01/2007 06:30,0
12/01/2007 07:30,0.660906
12/01/2007 08:30,2.56837
12/01/2007 09:30,18.1039
12/01/2007 10:30,44.683
12/01/2007 11:30,52.7289
12/01/2007 12:30,83.5756
12/01/2007 13:30,87.7014
12/01/2007 14:30,63.2029
12/01/2007 15:30,22.0934
12/01/2007 16:30,3.27658
12/01/2007 17:30,0
12/01/2007 18:30,0
12/01/2007 19:30,0
12/01/2007 20:30,0
12/01/2007 21:30,0
12/01/2007 22:30,0
12/01/2007 23:30,0
13/01/2007 00:30,0
13/01/2007 01:30,0
13/01/2007 02:30,0
13/01/2007 03:30,0
13/01/2007 04:30,0
13/01/2007 05:30,0
13/01/2007 06:30,0
13/01/2007 07:30,0.760675
13/01/2007 08:30,3.06429
13/01/2007 09:30,20.6389
13/01/2007 10:30,65.2862
13/01/2007 11:30,106.451
13/01/2007 12:30,77.9068
13/01/2007 13:30,51.5717
13/01/2007 14:30,57.4455
13/01/2007 15:30,25.0819
13/01/2007 16:30,3.36772
13/01/2007 17:30,0
13/01/2007 18:30,0
13/01/2007 19:30,0
13/01/2007 20:30,0
13/01/2007 21:30,0
13/01/2007 22:30,0
13/01/2007 23:30,0
14/01/2007 00:30,0
14/01/2007 01:30,0
14/01/2007 02:30,0
14/01/2007 03:30,0
14/01/2007 04:30,0
14/01/2007 05:30,0
14/01/2007 06:30,0
14/01/2007 07:30,0.542105
14/01/2007 08:30,5.33216
14/01/2007 09:30,43.3804
14/01/2007 10:30,148.228
14/01/2007 11:30,197.072
14/01/2007 12:30,206.254
14/01/2007 13:30,191.065
14/01/2007 14:30,119.227
14/01/2007 15:30,54.6649
14/01/2007 16:30,7.83752
14/01/2007 17:30,0
14/01/2007 18:30,0
14/01/2007 19:30,0
14/01/2007 20:30,0
14/01/2007 21:30,0
14/01/2007 22:30,0
14/01/2007 23:30,0
15/01/2007 00:30,0
15/01/2007 01:30,0
15/01/2007 02:30,0
15/01/2007 03:30,0
15/01/2007 04:30,0
15/01/2007 05:30,0
15/01/2007 06:30,0
15/01/2007 07:30,0.978593
15/01/2007 08:30,5.26234
15/01/2007 09:30,30.1444
15/01/2007 10:30,58.2421
15/01/2007 11:30,75.3036
15/01/2007 12:30,84.5674
15/01/2007 13:30,96.5203
15/01/2007 14:30,77.9468
15/01/2007 15:30,24.7586
15/01/2007 16:30,4.11007
15/01/2007 17:30,0
15/01/2007 18:30,0
15/01/2007 19:30,0
15/01/2007 20:30,0
15/01/2007 21:30,0
15/01/2007 22:30,0
15/01/2007 23:30,0
16/01/2007 00:30,0
16/01/2007 01:30,0
16/01/2007 02:30,0
16/01/2007 03:30,0
16/01/2007 04:30,0
16/01/2007 05:30,0
16/01/2007 06:30,0
16/01/2007 07:30,0.591472
16/01/2007 08:30,3.41407
16/01/2007 09:30,19.5354
16/01/2007 10:30,34.8856
16/01/2007 11:30,63.2653
16/01/2007 12:30,70.3471
16/01/2007 13:30,50.8569
16/01/2007 14:30,37.096
16/01/2007 15:30,20.3776
16/01/2007 16:30,3.79309
16/01/2007 17:30,0
16/01/2007 18:30,0
16/01/2007 19:30,0
16/01/2007 20:30,0
16/01/2007 21:30,0
16/01/2007 22:30,0
16/01/2007 23:30,0
17/01/2007 00:30,0
17/01/2007 01:30,0
17/01/2007 02:30,0
17/01/2007 03:30,0
17/01/2007 04:30,0
17/01/2007 05:30,0
17/01/2007 06:30,0
17/01/2007 07:30,0
17/01/2007 08:30,3.3295
17/01/2007 09:30,41.7488
17/01/2007 10:30,157.216
17/01/2007 11:30,154.662
17/01/2007 12:30,176.92
17/01/2007 13:30,176.668
17/01/2007 14:30,104.869
17/01/2007 15:30,38.4343
17/01/2007 16:30,5.73622
17/01/2007 17:30,0
17/01/2007 18:30,0
17/01/2007 19:30,0
17/01/2007 20:30,0
17/01/2007 21:30,0
17/01/2007 22:30,0
17/01/2007 23:30,0
18/01/2007 00:30,0
18/01/2007 01:30,0
18/01/2007 02:30,0
18/01/2007 03:30,0
18/01/2007 04:30,0
18/01/2007 05:30,0
18/01/2007 06:30,1.48599
18/01/2007 07:30,1.03733
18/01/2007 08:30,2.83238
18/01/2007 09:30,22.3012
18/01/2007 10:30,56.0039
18/01/2007 11:30,117.917
18/01/2007 12:30,131.38
18/01/2007 13:30,138.342
18/01/2007 14:30,103.05
18/01/2007 15:30,37.7867
18/01/2007 16:30,6.29527
18/01/2007 17:30,0
18/01/2007 18:30,0
18/01/2007 19:30,0
18/01/2007 20:30,0
18/01/2007 21:30,0
18/01/2007 22:30,0
18/01/2007 23:30,0
19/01/2007 00:30,0
19/01/2007 01:30,0
19/01/2007 02:30,0
19/01/2007 03:30,0
19/01/2007 04:30,0
19/01/2007 05:30,0
19/01/2007 06:30,0
19/01/2007 07:30,0.604797
19/01/2007 08:30,9.76821
19/01/2007 09:30,73.8009
19/01/2007 10:30,141.874
19/01/2007 11:30,144.035
19/01/2007 12:30,124.711
19/01/2007 13:30,106.391
19/01/2007 14:30,61.1859
19/01/2007 15:30,24.7314
19/01/2007 16:30,4.13266
19/01/2007 17:30,0
19/01/2007 18:30,0
19/01/2007 19:30,0
19/01/2007 20:30,0
19/01/2007 21:30,0
19/01/2007 22:30,0
19/01/2007 23:30,0
20/01/2007 00:30,0
20/01/2007 01:30,0
20/01/2007 02:30,0
20/01/2007 03:30,0
20/01/2007 04:30,0
20/01/2007 05:30,0
20/01/2007 06:30,1.26482
20/01/2007 07:30,1.10204
20/01/2007 08:30,0
20/01/2007 09:30,74.3737
20/01/2007 10:30,176.575
20/01/2007 11:30,228.619
20/01/2007 12:30,249.216
20/01/2007 13:30,196.315
20/01/2007 14:30,154.32
20/01/2007 15:30,60.0191
20/01/2007 16:30,10.7396
20/01/2007 17:30,0
20/01/2007 18:30,0
20/01/2007 19:30,0
20/01/2007 20:30,0
20/01/2007 21:30,0
20/01/2007 22:30,0
20/01/2007 23:30,0
21/01/2007 00:30,0
21/01/2007 01:30,0
21/01/2007 02:30,0
21/01/2007 03:30,0
21/01/2007 04:30,0
21/01/2007 05:30,0
21/01/2007 06:30,0
21/01/2007 07:30,1.21072
21/01/2007 08:30,11.435
21/01/2007 09:30,68.0581
21/01/2007 10:30,131.73
21/01/2007 11:30,210.386
21/01/2007 12:30,203.616
21/01/2007 13:30,181.158
21/01/2007 14:30,132.435
21/01/2007 15:30,60.9349
21/01/2007 16:30,11.6394
21/01/2007 17:30,0
21/01/2007 18:30,0
21/01/2007 19:30,0
21/01/2007 20:30,0
21/01/2007 21:30,0
21/01/2007 22:30,0
21/01/2007 23:30,0
22/01/2007 00:30,0
22/01/2007 01:30,0
22/01/2007 02:30,0
22/01/2007 03:30,0
22/01/2007 04:30,0
22/01/2007 05:30,0
22/01/2007 06:30,1.03127
22/01/2007 07:30,1.01725
22/01/2007 08:30,12.005
22/01/2007 09:30,75.4027
22/01/2007 10:30,166.68
22/01/2007 11:30,231.266
22/01/2007 12:30,247.131
22/01/2007 13:30,241.668
22/01/2007 14:30,204.85
22/01/2007 15:30,107.076
22/01/2007 16:30,21.9018
22/01/2007 17:30,0
22/01/2007 18:30,0
22/01/2007 19:30,0
22/01/2007 20:30,0
22/01/2007 21:30,0
22/01/2007 22:30,0
22/01/2007 23:30,0
23/01/2007 00:30,0
23/01/2007 01:30,0
23/01/2007 02:30,0
23/01/2007 03:30,0
23/01/2007 04:30,0
23/01/2007 05:30,0
23/01/2007 06:30,0.898425
23/01/2007 07:30,1.18438
23/01/2007 08:30,14.5199
23/01/2007 09:30,88.1689
23/01/2007 10:30,184.666
23/01/2007 11:30,186.415
23/01/2007 12:30,220.439
23/01/2007 13:30,234.604
23/01/2007 14:30,167.131
23/01/2007 15:30,92.1621
23/01/2007 16:30,15.2516
23/01/2007 17:30,0
23/01/2007 18:30,0
23/01/2007 19:30,0
23/01/2007 20:30,0
23/01/2007 21:30,0
23/01/2007 22:30,0
23/01/2007 23:30,0
24/01/2007 00:30,0
24/01/2007 01:30,0
24/01/2007 02:30,0
24/01/2007 03:30,0
24/01/2007 04:30,0
24/01/2007 05:30,0
24/01/2007 06:30,1.17692
24/01/2007 07:30,1.03448
24/01/2007 08:30,14.697
24/01/2007 09:30,98.601
24/01/2007 10:30,188.664
24/01/2007 11:30,265.011
24/01/2007 12:30,235.14
24/01/2007 13:30,196.3
24/01/2007 14:30,96.5597
24/01/2007 15:30,80.7109
24/01/2007 16:30,16.7052
24/01/2007 17:30,0
24/01/2007 18:30,0
24/01/2007 19:30,0
24/01/2007 20:30,0
24/01/2007 21:30,0
24/01/2007 22:30,0
24/01/2007 23:30,0
25/01/2007 00:30,0
25/01/2007 01:30,0
25/01/2007 02:30,0
25/01/2007 03:30,0
25/01/2007 04:30,0
25/01/2007 05:30,0
25/01/2007 06:30,0.774954
25/01/2007 07:30,0.825628
25/01/2007 08:30,18.5721
25/01/2007 09:30,100.378
25/01/2007 10:30,196.38
25/01/2007 11:30,253.617
25/01/2007 12:30,273.169
25/01/2007 13:30,264.071
25/01/2007 14:30,203.246
25/01/2007 15:30,115.539
25/01/2007 16:30,28.3393
25/01/2007 17:30,0
25/01/2007 18:30,0
25/01/2007 19:30,0
25/01/2007 20:30,0
25/01/2007 21:30,0
25/01/2007 22:30,0
25/01/2007 23:30,0
26/01/2007 00:30,0
26/01/2007 01:30,0
26/01/2007 02:30,0
26/01/2007 03:30,0
26/01/2007 04:30,0
26/01/2007 05:30,0
26/01/2007 06:30,0.869226
26/01/2007 07:30,0
26/01/2007 08:30,7.22845
26/01/2007 09:30,31.8364
26/01/2007 10:30,47.1403
26/01/2007 11:30,97.4822
26/01/2007 12:30,101.994
26/01/2007 13:30,114.86
26/01/2007 14:30,112.693
26/01/2007 15:30,50.9044
26/01/2007 16:30,10.4853
26/01/2007 17:30,0
26/01/2007 18:30,0
26/01/2007 19:30,0
26/01/2007 20:30,0
26/01/2007 21:30,0
26/01/2007 22:30,0
26/01/2007 23:30,0
27/01/2007 00:30,0
27/01/2007 01:30,0
27/01/2007 02:30,0
27/01/2007 03:30,0
27/01/2007 04:30,0
27/01/2007 05:30,0
27/01/2007 06:30,0.490869
27/01/2007 07:30,1.36558
27/01/2007 08:30,5.65441
27/01/2007 09:30,35.3357
27/01/2007 10:30,71.259
27/01/2007 11:30,140.012
27/01/2007 12:30,166.502
27/01/2007 13:30,131.114
27/01/2007 14:30,134.398
27/01/2007 15:30,79.5134
27/01/2007 16:30,14.6273
27/01/2007 17:30,0
27/01/2007 18:30,0
27/01/2007 19:30,0
27/01/2007 20:30,0
27/01/2007 21:30,0
27/01/2007 22:30,0
27/01/2007 23:30,0
28/01/2007 00:30,0
28/01/2007 01:30,0
28/01/2007 02:30,0
28/01/2007 03:30,0
28/01/2007 04:30,0
28/01/2007 05:30,0
28/01/2007 06:30,0.361042
28/01/2007 07:30,1.26132
28/01/2007 08:30,11.2984
28/01/2007 09:30,44.247
28/01/2007 10:30,84.7684
28/01/2007 11:30,211.948
28/01/2007 12:30,252.62
28/01/2007 13:30,224.221
28/01/2007 14:30,0
28/01/2007 15:30,0
28/01/2007 16:30,0
28/01/2007 17:30,0
28/01/2007 18:30,0
28/01/2007 19:30,0
28/01/2007 20:30,0
28/01/2007 21:30,0
28/01/2007 22:30,0
28/01/2007 23:30,0
29/01/2007 00:30,0
29/01/2007 01:30,0
29/01/2007 02:30,0
29/01/2007 03:30,0
29/01/2007 04:30,0
29/01/2007 05:30,0
29/01/2007 06:30,0.468866
29/01/2007 07:30,0.794286
29/01/2007 08:30,13.8476
29/01/2007 09:30,0
29/01/2007 10:30,0
29/01/2007 11:30,0
29/01/2007 12:30,0
29/01/2007 13:30,127.433
29/01/2007 14:30,81.766
29/01/2007 15:30,33.526
29/01/2007 16:30,10.6231
29/01/2007 17:30,0
29/01/2007 18:30,0
29/01/2007 19:30,0
29/01/2007 20:30,0
29/01/2007 21:30,0
29/01/2007 22:30,0
29/01/2007 23:30,0
30/01/2007 00:30,0
30/01/2007 01:30,0
30/01/2007 02:30,0
30/01/2007 03:30,0
30/01/2007 04:30,0
30/01/2007 05:30,0
30/01/2007 06:30,0.844842
30/01/2007 07:30,0.872349
30/01/2007 08:30,7.26236
30/01/2007 09:30,33.749
30/01/2007 10:30,44.5012
30/01/2007 11:30,69.042
30/01/2007 12:30,97.8075
30/01/2007 13:30,123.506
30/01/2007 14:30,126.414
30/01/2007 15:30,71.7579
30/01/2007 16:30,23.1409
30/01/2007 17:30,0.830573
30/01/2007 18:30,0
30/01/2007 19:30,0
30/01/2007 20:30,0
30/01/2007 21:30,0
30/01/2007 22:30,0
30/01/2007 23:30,0
31/01/2007 00:30,0
31/01/2007 01:30,0
31/01/2007 02:30,0
31/01/2007 03:30,0
31/01/2007 04:30,0
31/01/2007 05:30,0
31/01/2007 06:30,0.847297
31/01/2007 07:30,1.17665
31/01/2007 08:30,22.7241
31/01/2007 09:30,74.4122
31/01/2007 10:30,107.007
31/01/2007 11:30,89.2853
31/01/2007 12:30,79.0458
31/01/2007 13:30,98.5137
31/01/2007 14:30,57.5645
31/01/2007 15:30,71.1637
31/01/2007 16:30,21.5099
31/01/2007 17:30,1.81706
31/01/2007 18:30,0
31/01/2007 19:30,0
31/01/2007 20:30,0
31/01/2007 21:30,0
31/01/2007 22:30,0
31/01/2007 23:30,0
01/02/2014 00:30,0
01/02/2014 01:30,0
01/02/2014 02:30,0
01/02/2014 03:30,0
01/02/2014 04:30,0
01/02/2014 05:30,0
01/02/2014 06:30,0
01/02/2014 07:30,0
01/02/2014 08:30,25.3421
01/02/2014 09:30,103.982
01/02/2014 10:30,123.895
01/02/2014 11:30,127.016
01/02/2014 12:30,159.505
01/02/2014 13:30,153.157
01/02/2014 14:30,93.7809
01/02/2014 15:30,27.2202
01/02/2014 16:30,11.4811
01/02/2014 17:30,1.99594
01/02/2014 18:30,0
01/02/2014 19:30,0
01/02/2014 20:30,0
01/02/2014 21:30,0
01/02/2014 22:30,0
01/02/2014 23:30,0
02/02/2014 00:30,0
02/02/2014 01:30,0
02/02/2014 02:30,0
02/02/2014 03:30,0
02/02/2014 04:30,0
02/02/2014 05:30,0
02/02/2014 06:30,0
02/02/2014 07:30,0
02/02/2014 08:30,23.6667
02/02/2014 09:30,102.79
02/02/2014 10:30,121.435
02/02/2014 11:30,203.23
02/02/2014 12:30,207.417
02/02/2014 13:30,222.72
02/02/2014 14:30,138.212
02/02/2014 15:30,91.4096
02/02/2014 16:30,32.1271
02/02/2014 17:30,0.70806
02/02/2014 18:30,0
02/02/2014 19:30,0
02/02/2014 20:30,0
02/02/2014 21:30,0
02/02/2014 22:30,0
02/02/2014 23:30,0
03/02/2014 00:30,0
03/02/2014 01:30,0
03/02/2014 02:30,0
03/02/2014 03:30,0
03/02/2014 04:30,0
03/02/2014 05:30,0
03/02/2014 06:30,0
03/02/2014 07:30,0.465497
03/02/2014 08:30,11.6548
03/02/2014 09:30,39.5389
03/02/2014 10:30,62.3885
03/02/2014 11:30,72.0555
03/02/2014 12:30,69.4174
03/02/2014 13:30,54.98
03/02/2014 14:30,46.5831
03/02/2014 15:30,31.6361
03/02/2014 16:30,9.20414
03/02/2014 17:30,0.595974
03/02/2014 18:30,0
03/02/2014 19:30,0
03/02/2014 20:30,0
03/02/2014 21:30,0
03/02/2014 22:30,0
03/02/2014 23:30,0
04/02/2014 00:30,0
04/02/2014 01:30,0
04/02/2014 02:30,0
04/02/2014 03:30,0
04/02/2014 04:30,0
04/02/2014 05:30,0
04/02/2014 06:30,0
04/02/2014 07:30,1.28316
04/02/2014 08:30,21.8668
04/02/2014 09:30,99.6534
04/02/2014 10:30,151.414
04/02/2014 11:30,170.673
04/02/2014 12:30,209.174
04/02/2014 13:30,189.086
04/02/2014 14:30,147.086
04/02/2014 15:30,76.2467
04/02/2014 16:30,19.224
04/02/2014 17:30,0.540498
04/02/2014 18:30,0
04/02/2014 19:30,0
04/02/2014 20:30,0
04/02/2014 21:30,0
04/02/2014 22:30,0
04/02/2014 23:30,0
05/02/2014 00:30,0
05/02/2014 01:30,0
05/02/2014 02:30,0
05/02/2014 03:30,0
05/02/2014 04:30,0
05/02/2014 05:30,0
05/02/2014 06:30,0
05/02/2014 07:30,0.587864
05/02/2014 08:30,22.6161
05/02/2014 09:30,35.0322
05/02/2014 10:30,48.6936
05/02/2014 11:30,49.1331
05/02/2014 12:30,70.8075
05/02/2014 13:30,96.6043
05/02/2014 14:30,78.0687
05/02/2014 15:30,60.5491
05/02/2014 16:30,17.202
05/02/2014 17:30,0.741347
05/02/2014 18:30,0
05/02/2014 19:30,0
05/02/2014 20:30,0
05/02/2014 21:30,0
05/02/2014 22:30,0
05/02/2014 23:30,0
06/02/2014 00:30,0
06/02/2014 01:30,0
06/02/2014 02:30,0
06/02/2014 03:30,0
06/02/2014 04:30,0
06/02/2014 05:30,0
06/02/2014 06:30,0
06/02/2014 07:30,0.890036
06/02/2014 08:30,12.0253
06/02/2014 09:30,52.9083
06/02/2014 10:30,116.095
06/02/2014 11:30,151.705
06/02/2014 12:30,118.268
06/02/2014 13:30,83.1676
06/02/2014 14:30,57.0315
06/02/2014 15:30,27.1836
06/02/2014 16:30,7.26655
06/02/2014 17:30,-0.336049
06/02/2014 18:30,0
06/02/2014 19:30,0
06/02/2014 20:30,0
06/02/2014 21:30,0
06/02/2014 22:30,0
06/02/2014 23:30,0
07/02/2014 00:30,0
07/02/2014 01:30,0
07/02/2014 02:30,0
07/02/2014 03:30,0
07/02/2014 04:30,0
07/02/2014 05:30,0
07/02/2014 06:30,0
07/02/2014 07:30,0.579108
07/02/2014 08:30,22.4939
07/02/2014 09:30,95.543
07/02/2014 10:30,220.499
07/02/2014 11:30,299.567
07/02/2014 12:30,366.476
07/02/2014 13:30,327.375
07/02/2014 14:30,256.578
07/02/2014 15:30,141.981
07/02/2014 16:30,32.136
07/02/2014 17:30,1.00887
07/02/2014 18:30,0
07/02/2014 19:30,0
07/02/2014 20:30,0
07/02/2014 21:30,0
07/02/2014 22:30,0
07/02/2014 23:30,0
08/02/2014 00:30,0
08/02/2014 01:30,0
08/02/2014 02:30,0
08/02/2014 03:30,0
08/02/2014 04:30,0
08/02/2014 05:30,0
08/02/2014 06:30,0
08/02/2014 07:30,0.445637
08/02/2014 08:30,29.1099
08/02/2014 09:30,79.519
08/02/2014 10:30,100.211
08/02/2014 11:30,163.132
08/02/2014 12:30,136.732
08/02/2014 13:30,122.947
08/02/2014 14:30,77.6509
08/02/2014 15:30,46.6727
08/02/2014 16:30,21.1374
08/02/2014 17:30,2.24222
08/02/2014 18:30,0
08/02/2014 19:30,0
08/02/2014 20:30,0
08/02/2014 21:30,0
08/02/2014 22:30,0
08/02/2014 23:30,0
09/02/2014 00:30,0
09/02/2014 01:30,0
09/02/2014 02:30,0
09/02/2014 03:30,0
09/02/2014 04:30,0
09/02/2014 05:30,0
09/02/2014 06:30,0
09/02/2014 07:30,0.334133
09/02/2014 08:30,22.3731
09/02/2014 09:30,67.5142
09/02/2014 10:30,118.5
09/02/2014 11:30,176.903
09/02/2014 12:30,177.169
09/02/2014 13:30,197.141
09/02/2014 14:30,165.382
09/02/2014 15:30,108.446
09/02/2014 16:30,52.232
09/02/2014 17:30,5.66363
09/02/2014 18:30,0
09/02/2014 19:30,0
09/02/2014 20:30,0
09/02/2014 21:30,0
09/02/2014 22:30,0
09/02/2014 23:30,0
10/02/2014 00:30,0
10/02/2014 01:30,0
10/02/2014 02:30,0
10/02/2014 03:30,0
10/02/2014 04:30,0
10/02/2014 05:30,0
10/02/2014 06:30,0
10/02/2014 07:30,0.819474
10/02/2014 08:30,25.9505
10/02/2014 09:30,28.1987
10/02/2014 10:30,86.5714
10/02/2014 11:30,137.121
10/02/2014 12:30,228.963
10/02/2014 13:30,218.21
10/02/2014 14:30,220.062
10/02/2014 15:30,138.982
10/02/2014 16:30,51.8851
10/02/2014 17:30,1.82194
10/02/2014 18:30,0
10/02/2014 19:30,0
10/02/2014 20:30,0
10/02/2014 21:30,0
10/02/2014 22:30,0
10/02/2014 23:30,0
11/02/2014 00:30,0
11/02/2014 01:30,0
11/02/2014 02:30,0
11/02/2014 03:30,0
11/02/2014 04:30,0
11/02/2014 05:30,0
11/02/2014 06:30,0
11/02/2014 07:30,-0.235732
11/02/2014 08:30,4.06104
11/02/2014 09:30,21.9229
11/02/2014 10:30,67.3325
11/02/2014 11:30,177.02
11/02/2014 12:30,384.964
11/02/2014 13:30,265.844
11/02/2014 14:30,267.194
11/02/2014 15:30,126.799
11/02/2014 16:30,43.3863
11/02/2014 17:30,4.59569
11/02/2014 18:30,0
11/02/2014 19:30,0
11/02/2014 20:30,0
11/02/2014 21:30,0
11/02/2014 22:30,0
11/02/2014 23:30,0
12/02/2014 00:30,0
12/02/2014 01:30,0
12/02/2014 02:30,0
12/02/2014 03:30,0
12/02/2014 04:30,0
12/02/2014 05:30,0
12/02/2014 06:30,0
12/02/2014 07:30,0.325649
12/02/2014 08:30,7.698
12/02/2014 09:30,12.0016
12/02/2014 10:30,17.061
12/02/2014 11:30,24.8774
12/02/2014 12:30,61.7123
12/02/2014 13:30,144.267
12/02/2014 14:30,101.813
12/02/2014 15:30,45.7547
12/02/2014 16:30,18.3219
12/02/2014 17:30,1.37613
12/02/2014 18:30,0
12/02/2014 19:30,0
12/02/2014 20:30,0
12/02/2014 21:30,0
12/02/2014 22:30,0
12/02/2014 23:30,0
13/02/2014 00:30,0
13/02/2014 01:30,0
13/02/2014 02:30,0
13/02/2014 03:30,0
13/02/2014 04:30,0
13/02/2014 05:30,0
13/02/2014 06:30,0
13/02/2014 07:30,0.53553
13/02/2014 08:30,45.9188
13/02/2014 09:30,154.805
13/02/2014 10:30,234.199
13/02/2014 11:30,270.152
13/02/2014 12:30,260.086
13/02/2014 13:30,223.634
13/02/2014 14:30,159.774
13/02/2014 15:30,161.256
13/02/2014 16:30,71.9429
13/02/2014 17:30,5.06176
13/02/2014 18:30,0
13/02/2014 19:30,0
13/02/2014 20:30,0
13/02/2014 21:30,0
13/02/2014 22:30,0
13/02/2014 23:30,0
14/02/2014 00:30,0
14/02/2014 01:30,0
14/02/2014 02:30,0
14/02/2014 03:30,0
14/02/2014 04:30,0